SS3 DEB (55739 NORAD) Tracking and Keplerian Element Data

This shows tracking and keplerian element data for the satellite.

Feedback or suggestion? Click here.




ElementValue
Catalog55739
NameSS3 DEB
Epoch Orbit308
Epoch Day61.14607851
Epoch Year2023
RAAN345.1153
Inclination37.198
Eccentricity0.0052018
Argument of Perigee172.5715
Mean Anonmoly187.5835
Mean Motion15.70902945
Decay Rate0.00641259
L11 55739U 23019K 23061.14607851 .00641259 00000+0 42720-2 0 9991
L22 55739 37.1980 345.1153 0052018 172.5715 187.5835 15.70902945 3085



Live tracking and technical data element details for SS3 DEB (NORAD 55739). SS3 DEB can be tracked NOW for your location showing map with azimuth and elevation plus other details from your city location.







IsCatalogInMostPopularTable: catalog: 55739, numindb: 9
Update: records affected: 1



GetName: 55739 SS3 DEB

Hit Count: updated at: Tue, 28 Mar 2023 03:18:52 GMT